Moab, UT

2:02 PM MST on December 12, 2019 (GMT -0700)
Canyonlands

Weather History for KCNY - June, 2019

Change the Weather History Date:

Saturday, June 1, 2019

  Actual Average Record
Temperature  
Mean Temperature 73 °F 68 °F  
Max Temperature 87 °F 85 °F 101 °F (1977)
Min Temperature 58 °F 51 °F 39 °F (1988)
Degree Days  
Heating Degree Days 0 2  
Month to date heating degree days 0 2  
Since 1 June heating degree days 0 2  
Since 1 July heating degree days 5803 5562  
Cooling Degree Days 8 5  
Month to date cooling degree days 8 5  
Year to date cooling degree days 23 69  
Since 1 June cooling degree days 8 5  
Growing Degree Days 24 (Base 50)    
Moisture  
Dew Point 31 °F    
Average Humidity 26    
Maximum Humidity 42    
Minimum Humidity 9    
Precipitation  
Precipitation 0.00 in 0.02 in 0.30 in (1984)
Month to date precipitation 0.00 0.02  
Year to date precipitation 5.98 3.22  
Sea Level Pressure  
Sea Level Pressure 29.75 in    
Wind  
Wind Speed 8 mph (SW)    
Max Wind Speed 20 mph    
Max Gust Speed 29 mph    
Visibility 10 miles    
Events      
T = Trace of Precipitation, MM = Missing Value Source: NWS Daily Summary

Daily Weather History Graph

Daily Weather History Graph

Search for Another Location

Airport or City:

Astronomy

Jun. 01, 2019 Rise Set
Actual Time 5:56 AM MDT 8:38 PM MDT
Civil Twilight 5:24 AM MDT 9:09 PM MDT
Nautical Twilight 4:45 AM MDT 9:48 PM MDT
Astronomical Twilight 4:01 AM MDT 10:32 PM MDT
Moon 5:00 AM MDT (6/1) 6:56 PM MDT (6/1)
Length of Visible Light 15h 44m
Length of Day
14h 41m
Waning Crescent, 3% of the Moon is Illuminated
Jun 1
Waning Crescent
Jun 3
New
Jun 10
First Quarter
Jun 17
Full
Jun 25
Last Quarter

Hourly Weather History & Observations

Time (MDT) Temp. Dew Point Humidity Pressure Visibility Wind Dir Wind Speed Gust Speed Precip Events Conditions
12:53 AM 62.1 °F 36.0 °F 38% 29.81 in 10.0 mi WSW 3.5 mph - N/A   Clear
1:53 AM 61.0 °F 37.9 °F 42% 29.80 in 10.0 mi West 3.5 mph - N/A   Clear
2:53 AM 66.0 °F 37.0 °F 34% 29.77 in 10.0 mi SSE 5.8 mph - N/A   Clear
3:53 AM 64.0 °F 37.0 °F 37% 29.75 in 10.0 mi Variable 3.5 mph - N/A   Clear
4:53 AM 64.0 °F 36.0 °F 35% 29.74 in 10.0 mi Calm Calm - N/A   Clear
5:53 AM 64.0 °F 36.0 °F 35% 29.78 in 10.0 mi SE 8.1 mph - N/A   Clear
6:53 AM 64.0 °F 37.0 °F 37% 29.79 in 10.0 mi East 8.1 mph - N/A   Clear
7:53 AM 66.9 °F 37.0 °F 33% 29.80 in 10.0 mi ESE 9.2 mph - N/A   Clear
8:53 AM 72.0 °F 37.0 °F 28% 29.82 in 10.0 mi East 9.2 mph - N/A   Clear
9:53 AM 73.0 °F 36.0 °F 26% 29.84 in 10.0 mi ESE 10.4 mph - N/A   Clear
10:53 AM 75.9 °F 35.1 °F 23% 29.83 in 10.0 mi ESE 6.9 mph - N/A   Clear
11:53 AM 80.1 °F 32.0 °F 17% 29.81 in 10.0 mi Variable 3.5 mph - N/A   Clear
12:53 PM 82.0 °F 24.1 °F 12% 29.78 in 10.0 mi WSW 5.8 mph 26.5 mph N/A   Clear
1:53 PM 84.9 °F 27.0 °F 12% 29.76 in 10.0 mi SSW 17.3 mph 27.6 mph N/A   Clear
2:53 PM 86.0 °F 24.1 °F 10% 29.73 in 10.0 mi WSW 13.8 mph 26.5 mph N/A   Clear
3:53 PM 86.0 °F 21.9 °F 10% 29.71 in 10.0 mi NW 9.2 mph 19.6 mph N/A   Clear
4:53 PM 87.1 °F 23.0 °F 10% 29.68 in 10.0 mi SW 10.4 mph - N/A   Clear
5:53 PM 84.9 °F 23.0 °F 10% 29.67 in 10.0 mi SSE 9.2 mph - N/A   Clear
6:53 PM 84.0 °F 21.0 °F 10% 29.66 in 10.0 mi NW 9.2 mph - N/A   Clear
7:53 PM 82.0 °F 21.0 °F 10% 29.65 in 10.0 mi NNW 9.2 mph - N/A   Clear
8:53 PM 73.0 °F 26.1 °F 17% 29.67 in 10.0 mi NW 9.2 mph - N/A   Clear
9:53 PM 69.1 °F 27.0 °F 21% 29.70 in 10.0 mi NNW 8.1 mph - N/A   Clear
10:53 PM 64.0 °F 28.9 °F 27% 29.72 in 10.0 mi West 5.8 mph - N/A   Clear
11:53 PM 60.1 °F 32.0 °F 35% 29.72 in 10.0 mi WSW 5.8 mph - N/A   Clear